FW7086 Weather Reports


Display with metric or nautical units.
time (UTC)temp
F
wind
direction
speed
MPH
gust
MPH
rain 1hr
in
rain 24hr
in
rain mn
in
humidity
%
barometer
mb
20260510174551 61 66 1.0 1.0 0.00 0.00 0.00 34 1021.0
20260510174047 60 47 1.0 2.0 0.00 0.00 0.00 34 1021.1
20260510173542 60 11 1.0 2.0 0.00 0.00 0.00 35 1021.3
20260510173040 59 66 2.0 3.0 0.00 0.00 0.00 34 1021.1
20260510172536 59 50 2.0 2.0 0.00 0.00 0.00 36 1021.0
20260510172032 60 108 3.0 3.0 0.00 0.00 0.00 36 1021.3
20260510171529 60 90 4.0 6.0 0.00 0.00 0.00 35 1021.1
20260510171026 60 29 1.0 2.0 0.00 0.00 0.00 36 1021.1
20260510170522 60 105 0.0 0.0 0.00 0.00 0.00 36 1021.1
20260510170019 59 165 2.0 3.0 0.00 0.00 0.00 35 1021.1
20260510165514 59 96 1.0 1.0 0.00 0.00 0.00 35 1021.1
20260510165011 60 35 2.0 3.0 0.00 0.00 0.00 35 1021.2
20260510164508 62 95 3.0 4.0 0.00 0.00 0.00 33 1021.1
20260510164004 60 338 1.0 1.0 0.00 0.00 0.00 33 1021.0
20260510163500 60 267 2.0 3.0 0.00 0.00 0.00 32 1020.9
20260510162955 62 350 1.0 2.0 0.00 0.00 0.00 32 1020.6
20260510162452 59 128 2.0 2.0 0.00 0.00 0.00 32 1020.7
20260510161948 60 331 1.0 1.0 0.00 0.00 0.00 32 1020.7
20260510161444 61 26 3.0 3.0 0.00 0.00 0.00 32 1020.5
20260510160941 61 37 1.0 1.0 0.00 0.00 0.00 33 1020.5
20260510160438 61 58 2.0 2.0 0.00 0.00 0.00 31 1020.5
20260510155936 60 157 2.0 2.0 0.00 0.00 0.00 32 1020.6
20260510155429 60 160 0.0 0.0 0.00 0.00 0.00 32 1020.7
20260510154925 60 315 2.0 3.0 0.00 0.00 0.00 33 1020.4
20260510154421 59 39 1.0 2.0 0.00 0.00 0.00 33 1020.6
20260510153919 59 190 2.0 2.0 0.00 0.00 0.00 32 1020.6
20260510153417 59 240 2.0 2.0 0.00 0.00 0.00 31 1020.5
20260510152913 59 260 1.0 1.0 0.00 0.00 0.00 31 1020.5
20260510152411 60 180 3.0 3.0 0.00 0.00 0.00 32 1020.5
20260510151907 59 187 3.0 4.0 0.00 0.00 0.00 32 1020.6
20260510151405 59 84 0.0 0.0 0.00 0.00 0.00 32 1020.4
20260510150901 58 47 0.0 1.0 0.00 0.00 0.00 33 1020.6
20260510150356 59 48 4.0 4.0 0.00 0.00 0.00 32 1020.5
20260510145852 58 176 2.0 3.0 0.00 0.00 0.00 32 1020.4
20260510145349 59 54 1.0 3.0 0.00 0.00 0.00 32 1020.6
20260510144846 58 76 1.0 1.0 0.00 0.00 0.00 32 1020.6
20260510144343 57 180 1.0 1.0 0.00 0.00 0.00 32 1020.5
20260510143843 58 76 0.0 1.0 0.00 0.00 0.00 32 1020.6
20260510143339 57 28 1.0 1.0 0.00 0.00 0.00 33 1020.6
20260510142836 57 48 1.0 1.0 0.00 0.00 0.00 34 1020.6
20260510142332 58 120 2.0 2.0 0.00 0.00 0.00 33 1020.5
20260510141830 58 106 1.0 2.0 0.00 0.00 0.00 35 1020.4
20260510141327 58 63 2.0 2.0 0.00 0.00 0.00 32 1020.5
20260510140824 57 20 1.0 1.0 0.00 0.00 0.00 31 1020.4
20260510140320 57 81 1.0 2.0 0.00 0.00 0.00 33 1020.4
20260510135819 57 18 1.0 1.0 0.00 0.00 0.00 33 1020.0
20260510135315 57 27 2.0 2.0 0.00 0.00 0.00 33 1020.1
20260510134813 57 62 2.0 4.0 0.00 0.00 0.00 34 1019.9
20260510134310 56 29 2.0 2.0 0.00 0.00 0.00 35 1020.1
20260510133806 57 106 2.0 3.0 0.00 0.00 0.00 38 1019.9
20260510133302 55 75 1.0 2.0 0.00 0.00 0.00 43 1019.8
20260510132757 55 80 3.0 3.0 0.00 0.00 0.00 41 1019.9
20260510132256 55 96 1.0 1.0 0.00 0.00 0.00 42 1020.1
20260510131752 56 43 2.0 2.0 0.00 0.00 0.00 39 1020.0
20260510131250 55 74 0.0 0.0 0.00 0.00 0.00 42 1019.8
20260510130746 56 37 2.0 2.0 0.00 0.00 0.00 42 1019.7
20260510130243 55 88 1.0 1.0 0.00 0.00 0.00 43 1019.9
20260510125740 53 87 0.0 1.0 0.00 0.00 0.00 48 1019.9
20260510125236 53 3 4.0 4.0 0.00 0.00 0.00 50 1019.9
20260510124732 53 58 1.0 1.0 0.00 0.00 0.00 50 1019.8
20260510124230 53 356 3.0 4.0 0.00 0.00 0.00 50 1019.5
20260510123725 54 19 1.0 1.0 0.00 0.00 0.00 51 1019.6
20260510123221 53 0 0.0 1.0 0.00 0.00 0.00 52 1019.6
20260510122718 53 36 0.0 0.0 0.00 0.00 0.00 51 1019.4
20260510122214 52 40 0.0 0.0 0.00 0.00 0.00 54 1019.1
20260510121710 53 83 1.0 1.0 0.00 0.00 0.00 54 1019.3
20260510121208 52 352 0.0 0.0 0.00 0.00 0.00 56 1018.9
20260510120705 51 62 0.0 0.0 0.00 0.00 0.00 60 1019.1
20260510120201 50 356 0.0 0.0 0.00 0.00 0.00 61 1019.0
20260510115657 49 0 0.0 0.0 0.00 0.00 0.00 62 1018.8
20260510115156 48 357 0.0 1.0 0.00 0.00 0.00 64 1018.9
20260510114651 48 5 1.0 1.0 0.00 0.00 0.00 65 1018.7
20260510114148 47 0 0.0 0.0 0.00 0.00 0.00 66 1018.6
20260510113643 47 2 0.0 0.0 0.00 0.00 0.00 67 1018.4
20260510113140 48 358 0.0 0.0 0.00 0.00 0.00 68 1018.4
20260510112637 46 358 0.0 0.0 0.00 0.00 0.00 70 1018.5
20260510112134 45 357 0.0 0.0 0.00 0.00 0.00 72 1018.6
20260510111630 44 357 0.0 0.0 0.00 0.00 0.00 73 1018.6
20260510111126 43 2 0.0 0.0 0.00 0.00 0.00 74 1018.3
20260510110621 42 2 0.0 0.0 0.00 0.00 0.00 75 1018.2
20260510110119 42 2 0.0 0.0 0.00 0.00 0.00 77 1018.2
20260510105614 41 357 0.0 0.0 0.00 0.00 0.00 78 1018.0
20260510105109 41 351 0.0 0.0 0.00 0.00 0.00 78 1017.9
20260510104606 40 352 0.0 0.0 0.00 0.00 0.00 78 1017.8
20260510104103 40 351 0.0 0.0 0.00 0.00 0.00 77 1017.8
20260510103600 41 351 0.0 0.0 0.00 0.00 0.00 77 1017.8
20260510103055 41 351 0.0 0.0 0.00 0.00 0.00 76 1017.8
20260510102551 41 350 0.0 0.0 0.00 0.00 0.00 76 1017.8
20260510102047 41 350 0.0 0.0 0.00 0.00 0.00 75 1017.6
20260510101545 41 349 0.0 0.0 0.00 0.00 0.00 75 1017.6
20260510101043 42 349 0.0 0.0 0.00 0.00 0.00 74 1017.5
20260510100539 42 348 0.0 0.0 0.00 0.00 0.00 73 1017.4
20260510100037 42 345 0.0 0.0 0.00 0.00 0.00 72 1017.4
20260510095532 42 344 0.0 0.0 0.00 0.00 0.00 72 1017.2
20260510095032 42 349 0.0 0.0 0.00 0.00 0.00 73 1017.3
20260510094526 42 355 0.0 0.0 0.00 0.00 0.00 73 1017.2
20260510094022 42 351 0.0 0.0 0.00 0.00 0.00 73 1017.2
20260510093518 42 350 0.0 0.0 0.00 0.00 0.00 74 1017.1
20260510093015 41 351 0.0 0.0 0.00 0.00 0.00 73 1017.2
20260510092512 42 350 0.0 0.0 0.00 0.00 0.00 72 1017.2
20260510092012 42 349 0.0 0.0 0.00 0.00 0.00 72 1017.3
20260510091509 42 349 0.0 0.0 0.00 0.00 0.00 70 1017.1
20260510091004 43 348 0.0 0.0 0.00 0.00 0.00 69 1017.1
20260510090502 44 344 0.0 0.0 0.00 0.00 0.00 67 1016.9
20260510085957 44 327 0.0 0.0 0.00 0.00 0.00 67 1016.9
20260510085453 44 348 0.0 0.0 0.00 0.00 0.00 67 1016.8
20260510084948 44 346 0.0 0.0 0.00 0.00 0.00 65 1016.9
20260510084446 44 353 0.0 0.0 0.00 0.00 0.00 65 1016.8
20260510083942 44 354 0.0 0.0 0.00 0.00 0.00 65 1017.0
20260510083439 45 351 0.0 0.0 0.00 0.00 0.00 64 1016.9
20260510082934 46 351 0.0 0.0 0.00 0.00 0.00 62 1016.7
20260510082432 46 349 0.0 0.0 0.00 0.00 0.00 61 1016.8
20260510081931 46 1 0.0 0.0 0.00 0.00 0.00 60 1016.7
20260510081427 46 353 1.0 1.0 0.00 0.00 0.00 60 1016.3
20260510080924 46 22 0.0 0.0 0.00 0.00 0.00 60 1016.5
20260510080422 46 3 0.0 0.0 0.00 0.00 0.00 60 1016.2
20260510075920 47 356 0.0 0.0 0.00 0.00 0.00 59 1016.3
20260510075418 47 89 0.0 1.0 0.00 0.00 0.00 59 1016.0
20260510074914 47 4 1.0 2.0 0.00 0.00 0.00 59 1016.1
20260510074411 47 26 0.0 0.0 0.00 0.00 0.00 60 1016.0
20260510073908 47 72 0.0 1.0 0.00 0.00 0.00 61 1016.1
20260510073403 48 12 1.0 2.0 0.00 0.00 0.00 60 1016.1
20260510072859 48 11 2.0 2.0 0.00 0.00 0.00 60 1015.8
20260510072356 48 7 1.0 1.0 0.00 0.00 0.00 59 1015.9
20260510071852 48 357 1.0 1.0 0.00 0.00 0.00 60 1015.8
20260510071349 48 27 0.0 1.0 0.00 0.00 0.00 60 1015.8
20260510070848 49 348 3.0 4.0 0.00 0.00 0.00 60 1015.6
20260510070344 49 16 3.0 4.0 0.00 0.00 0.00 61 1015.5
20260510065838 49 44 0.0 1.0 0.00 0.00 0.00 60 1015.6
20260510065336 50 358 2.0 3.0 0.00 0.00 0.00 60 1015.5
20260510064832 50 2 3.0 3.0 0.00 0.00 0.00 60 1015.4
20260510064330 50 349 4.0 6.0 0.00 0.00 0.00 59 1015.3
20260510063826 50 3 5.0 6.0 0.00 0.00 0.00 62 1015.3
20260510063323 50 270 2.0 3.0 0.00 0.00 0.00 63 1015.1
20260510062819 49 8 0.0 1.0 0.00 0.00 0.00 65 1015.0
20260510062315 49 13 0.0 0.0 0.00 0.00 0.00 65 1014.9
20260510061810 49 5 0.0 0.0 0.00 0.00 0.00 66 1014.8
20260510061308 49 11 2.0 3.0 0.00 0.00 0.00 66 1014.9
20260510060804 49 21 0.0 0.0 0.00 0.00 0.00 67 1014.8
20260510060301 48 34 0.0 0.0 0.00 0.00 0.00 70 1014.5
20260510055758 47 26 0.0 0.0 0.00 0.00 0.00 74 1014.7
20260510055256 46 6 0.0 1.0 0.00 0.00 0.00 76 1014.4
20260510054755 46 4 0.0 0.0 0.00 0.00 0.00 75 1014.3
20260510054252 46 13 0.0 0.0 0.00 0.00 0.00 75 1014.1
20260510053752 47 30 0.0 0.0 0.00 0.00 0.00 74 1014.1
20260510053247 47 33 0.0 0.0 0.00 0.00 0.00 72 1014.1
20260510052743 48 143 0.0 0.0 0.00 0.00 0.00 73 1014.0
20260510052240 47 339 0.0 0.0 0.00 0.00 0.00 72 1013.9
20260510051735 47 351 0.0 0.0 0.00 0.00 0.00 72 1013.8
20260510051233 48 351 0.0 0.0 0.00 0.00 0.00 71 1013.8
20260510050729 48 23 0.0 0.0 0.00 0.00 0.00 71 1013.6
20260510050227 48 353 0.0 0.0 0.00 0.00 0.00 71 1013.6
20260510045723 48 357 0.0 0.0 0.00 0.00 0.00 71 1013.6
20260510045220 48 353 0.0 0.0 0.00 0.00 0.00 70 1013.6
20260510044716 48 350 0.0 0.0 0.00 0.00 0.00 70 1013.4
20260510044215 48 8 0.0 0.0 0.00 0.00 0.00 70 1013.2
20260510043709 48 8 0.0 0.0 0.00 0.00 0.00 69 1013.3
20260510043206 48 8 0.0 0.0 0.00 0.00 0.00 68 1013.3
20260510042703 48 359 0.0 0.0 0.00 0.00 0.00 67 1013.1
20260510042200 49 359 0.0 0.0 0.00 0.00 0.00 67 1013.1
20260510041657 49 358 0.0 0.0 0.00 0.00 0.00 67 1013.1
20260510041154 48 351 0.0 0.0 0.00 0.00 0.00 68 1012.8
20260510040651 49 358 0.0 0.0 0.00 0.00 0.00 67 1012.7
20260510040148 49 359 0.0 0.0 0.00 0.00 0.00 67 1012.8
20260510035643 49 345 0.0 0.0 0.00 0.00 0.00 65 1012.8
20260510035138 49 345 0.0 0.0 0.00 0.00 0.00 64 1012.9
20260510034636 50 345 0.0 0.0 0.00 0.00 0.00 64 1012.7
20260510034133 50 357 0.0 0.0 0.00 0.00 0.00 64 1012.7
20260510033629 50 2 0.0 0.0 0.00 0.00 0.00 63 1012.4
20260510033127 51 331 0.0 0.0 0.00 0.00 0.00 62 1012.6
20260510032623 50 218 0.0 0.0 0.00 0.00 0.00 62 1012.6
20260510032118 51 212 0.0 0.0 0.00 0.00 0.00 61 1012.5
20260510031613 51 211 0.0 0.0 0.00 0.00 0.00 60 1012.5
20260510031110 51 350 0.0 0.0 0.00 0.00 0.00 59 1012.5
20260510030605 51 355 0.0 0.0 0.00 0.00 0.00 59 1012.4
20260510030103 51 351 0.0 0.0 0.00 0.00 0.00 59 1012.3
20260510025600 52 342 0.0 0.0 0.00 0.00 0.00 57 1012.2
20260510025057 53 343 0.0 0.0 0.00 0.00 0.00 56 1012.1
20260510024554 53 327 0.0 0.0 0.00 0.00 0.00 55 1012.1
20260510024050 53 47 0.0 0.0 0.00 0.00 0.00 54 1011.8
20260510023547 54 142 0.0 1.0 0.00 0.00 0.00 53 1011.7
20260510023044 54 2 0.0 1.0 0.00 0.00 0.00 52 1011.8
20260510022543 54 1 0.0 0.0 0.00 0.00 0.00 52 1011.6
20260510022037 54 4 0.0 1.0 0.00 0.00 0.00 51 1011.4
20260510021534 54 8 0.0 1.0 0.00 0.00 0.00 51 1011.4
20260510021033 54 25 0.0 0.0 0.00 0.00 0.00 51 1011.3
20260510020532 55 44 0.0 0.0 0.00 0.00 0.00 52 1010.8
20260510020028 55 44 0.0 0.0 0.00 0.00 0.00 51 1011.0
20260510015524 55 28 0.0 0.0 0.00 0.00 0.00 50 1010.9
20260510015020 55 54 1.0 1.0 0.00 0.00 0.00 49 1010.8
20260510014517 55 30 0.0 0.0 0.00 0.00 0.00 49 1010.5
20260510014014 56 349 4.0 4.0 0.00 0.00 0.00 48 1010.3
20260510013509 56 9 1.0 1.0 0.00 0.00 0.00 48 1010.2
20260510013005 56 101 1.0 1.0 0.00 0.00 0.00 48 1010.2
20260510012504 57 22 1.0 1.0 0.00 0.00 0.00 48 1010.0
20260510012000 57 24 2.0 2.0 0.00 0.00 0.00 48 1009.9
20260510011455 57 355 0.0 0.0 0.00 0.00 0.00 48 1009.6
20260510010951 57 28 1.0 1.0 0.00 0.00 0.00 47 1009.7
20260510010449 57 15 2.0 3.0 0.00 0.00 0.00 48 1009.4
20260510005945 58 27 1.0 1.0 0.00 0.00 0.00 47 1009.2
20260510005441 58 300 1.0 1.0 0.00 0.00 0.00 46 1009.2
20260510004939 58 44 2.0 4.0 0.00 0.00 0.00 45 1009.0
20260510004436 59 359 3.0 6.0 0.00 0.00 0.00 45 1009.0
20260510003934 60 89 3.0 6.0 0.00 0.00 0.00 44 1009.1
20260510003431 60 358 3.0 3.0 0.00 0.00 0.00 43 1008.9
20260510002930 61 11 3.0 6.0 0.00 0.00 0.00 42 1008.8
20260510002427 61 12 3.0 4.0 0.00 0.00 0.00 42 1008.6
20260510001923 62 9 1.0 2.0 0.00 0.00 0.00 43 1008.4
20260510001421 63 61 2.0 3.0 0.00 0.00 0.00 42 1008.1
20260510000918 67 54 3.0 4.0 0.00 0.00 0.00 38 1008.0
20260510000415 70 7 1.0 2.0 0.00 0.00 0.00 33 1007.7
20260509235911 70 304 4.0 6.0 0.00 0.00 0.00 33 1007.7
20260509235408 70 349 3.0 4.0 0.00 0.00 0.00 33 1007.7
20260509234904 71 312 4.0 6.0 0.00 0.00 0.00 32 1007.5
20260509234401 71 35 3.0 3.0 0.00 0.00 0.00 32 1007.5
20260509233859 71 44 2.0 3.0 0.00 0.00 0.00 31 1007.3
20260509233357 71 330 5.0 6.0 0.00 0.00 0.00 31 1007.0
20260509232852 71 341 6.0 7.0 0.00 0.00 0.00 31 1007.3
20260509232350 71 344 5.0 7.0 0.00 0.00 0.00 31 1007.2
20260509231846 72 342 1.0 2.0 0.00 0.00 0.00 31 1006.9
20260509231343 72 335 2.0 3.0 0.00 0.00 0.00 31 1007.0
20260509230841 72 341 3.0 4.0 0.00 0.00 0.00 31 1006.9
20260509230337 72 286 2.0 3.0 0.00 0.00 0.00 31 1006.6
20260509225832 71 255 4.0 4.0 0.00 0.00 0.00 31 1006.9
20260509225330 72 261 4.0 4.0 0.00 0.00 0.00 31 1006.7
20260509224826 73 325 6.0 9.0 0.00 0.00 0.00 30 1006.6
20260509224322 73 327 6.0 7.0 0.00 0.00 0.00 30 1006.6
20260509223819 73 333 2.0 2.0 0.00 0.00 0.00 30 1006.6
20260509223316 73 310 5.0 7.0 0.00 0.00 0.00 31 1006.3
20260509222813 73 338 4.0 6.0 0.00 0.00 0.00 30 1006.4
20260509222308 73 330 3.0 3.0 0.00 0.00 0.00 30 1006.4
20260509221804 73 313 6.0 13.0 0.00 0.00 0.00 30 1006.1
20260509221301 74 273 5.0 7.0 0.00 0.00 0.00 29 1006.1
20260509220756 74 298 2.0 4.0 0.00 0.00 0.00 30 1006.2
20260509220253 74 242 7.0 9.0 0.00 0.00 0.00 28 1006.0
20260509215748 74 332 6.0 9.0 0.00 0.00 0.00 28 1006.0
20260509215245 75 289 9.0 15.0 0.00 0.00 0.00 27 1005.9
20260509214742 75 346 4.0 7.0 0.00 0.00 0.00 28 1005.8
20260509214239 74 319 5.0 7.0 0.00 0.00 0.00 29 1005.6
20260509213736 75 2 2.0 4.0 0.00 0.00 0.00 29 1005.4
20260509213232 75 202 6.0 11.0 0.00 0.00 0.00 29 1005.3
20260509212729 75 337 3.0 4.0 0.00 0.00 0.00 30 1005.6
20260509212226 75 195 4.0 6.0 0.00 0.00 0.00 30 1005.1
20260509211722 75 199 3.0 6.0 0.00 0.00 0.00 29 1005.3
20260509211219 76 37 3.0 6.0 0.00 0.00 0.00 30 1005.3
20260509210715 76 199 3.0 4.0 0.00 0.00 0.00 29 1005.2
20260509210213 76 212 4.0 6.0 0.00 0.00 0.00 28 1005.2
20260509205713 76 254 7.0 9.0 0.00 0.00 0.00 28 1005.2
20260509205212 76 142 8.0 11.0 0.00 0.00 0.00 29 1005.1
20260509204709 76 300 4.0 7.0 0.00 0.00 0.00 29 1005.1
20260509204205 75 249 2.0 4.0 0.00 0.00 0.00 30 1005.2
20260509203701 76 238 6.0 9.0 0.00 0.00 0.00 28 1004.9
20260509203200 75 199 5.0 10.0 0.00 0.00 0.00 29 1005.3
20260509202655 75 301 6.0 8.0 0.00 0.00 0.00 29 1005.0
20260509202150 75 277 4.0 6.0 0.00 0.00 0.00 30 1005.3
20260509201645 75 233 1.0 1.0 0.00 0.00 0.00 31 1005.0
20260509201143 75 332 2.0 4.0 0.00 0.00 0.00 30 1005.3
20260509200638 75 326 4.0 6.0 0.00 0.00 0.00 30 1005.3
20260509200134 75 195 6.0 8.0 0.00 0.00 0.00 30 1005.3
20260509195630 75 6 3.0 4.0 0.00 0.00 0.00 29 1005.5
20260509195125 75 324 4.0 4.0 0.00 0.00 0.00 30 1005.5
20260509194624 74 129 2.0 4.0 0.00 0.00 0.00 31 1005.5
20260509194122 74 283 6.0 10.0 0.00 0.00 0.00 30 1005.4
20260509193618 74 257 5.0 9.0 0.00 0.00 0.00 30 1005.4
20260509193114 73 344 3.0 4.0 0.00 0.00 0.00 30 1005.4
20260509192611 73 343 9.0 13.0 0.00 0.00 0.00 29 1005.4
20260509192105 74 288 10.0 13.0 0.00 0.00 0.00 29 1005.5
20260509191600 74 302 5.0 7.0 0.00 0.00 0.00 29 1005.4
20260509191057 74 271 5.0 8.0 0.00 0.00 0.00 29 1005.5
20260509190553 73 239 2.0 3.0 0.00 0.00 0.00 29 1005.3
20260509190051 74 233 9.0 14.0 0.00 0.00 0.00 29 1005.3
20260509185548 74 293 3.0 3.0 0.00 0.00 0.00 31 1005.2
20260509185044 73 171 1.0 1.0 0.00 0.00 0.00 30 1005.0
20260509184543 73 207 4.0 6.0 0.00 0.00 0.00 29 1005.3
20260509184039 74 355 4.0 7.0 0.00 0.00 0.00 29 1005.1
20260509183534 73 237 3.0 4.0 0.00 0.00 0.00 31 1005.3
20260509183031 72 22 2.0 2.0 0.00 0.00 0.00 31 1005.3
20260509182527 72 319 4.0 4.0 0.00 0.00 0.00 30 1005.2
20260509182024 73 145 2.0 3.0 0.00 0.00 0.00 30 1005.3
20260509181523 73 327 3.0 3.0 0.00 0.00 0.00 30 1005.3
20260509181020 73 188 4.0 6.0 0.00 0.00 0.00 29 1005.3
20260509180515 72 223 4.0 6.0 0.00 0.00 0.00 30 1005.5
20260509180014 72 126 4.0 6.0 0.00 0.00 0.00 30 1005.6
20260509175514 71 241 4.0 4.0 0.00 0.00 0.00 31 1005.5
20260509175011 72 269 5.0 7.0 0.00 0.00 0.00 30 1005.4